EHI
0 0 0 0 0 0 0 0 0 0 0 0 0 0 0 0 0 0 0 0 0 0 0 0 0 0 0 0 0 0 0 0 0 0 0 0 0 0 0 0 0 0 0
0 0 0 0 0 0 0 0 0 0 0 0 0 0 0 0 0 0 0 0 0 0 0 0 0 0 0 0 0 0 0 0 0 0 0 0 0 0 0 0 0 0 0
0 0 0 0 0 0 0 0 0 0 0 0 0 0 0 0 0 0 0 0 0 0 0 0 0 0 0 0 0 0 0 0 0 0 0 0 0 0 0 0 0 0 0
0 0 0 0 0 0 0 0 0 0 0 0 0 0 0 0 0 0 0 0 0 0 0 0 0 0 0 0 0 0 0 0 0 0 0 0 0 0 0 0 0 0 0
0 0 0 0 0 0 0 0 0 0 0 0 0 0 0 0 0 0 0 0 0 0 0 0 0 0 0 0 0 0 0 0 0 0 0 0 0 0 0 0 0 0 0
0 0 0 0 0 0 0 0 0 0 0 0 0 0 0 0 0 0 0 0 0 0 0 0 0 0 0 0 0 0 0 0 0 0 0 0 0 0 0 0 0 0 0
0 0 0 0 0 0 0 0 0 0 0 0 0 0 0 0 0 0 0 0 0 0 0 0 0 0 0 0 0 0 0 0 0 0 0 0 0 0 0 0 0 0 0
0 0 0 0 0 0 0 0 0 0 0 0 0 0 0 0 0 0 0 0 0 0 0 0 0 0 0 0 0 0 0 0 0 0 0 0 0 0 0 0 0 0 0
0 0 0 0 0 0 0 0 0 0 0 0 0 0 0 0 0 0 0 0 0 0 0 0 0 0 0 0 0 0 0 0 0 0 0 0 0 0 0 0 0 0 0
0 0 0 0 0 0 0 0 0 0 0 0 0 0 0 0 0 0 0 0 0 0 0 0 0 0 0 0 0 0 0 0 0 0 0 0 0 0 0 0 0 0 0
0 0 0 0 0 0 0 0 0 0 0 0 0 0 0 0 0 0 0 0 0 0 0 0 0 0 0 0 0 0 0 0 0 0 0 0 0 0 0 0 0 0 0
0 0 0 0 0 0 0 0 0 0 0 0 0 0 0 0 0 0 0 0 0 0 0 0 0 0 0 0 0 0 0 0 0 0 0 0 0 0 0 0 0 0 0
0 0 0 0 0 0 0 0 0 0 0 0 0 0 0 0 0 0 0 0 0 0 0 0 0 0 0 0 0 0 0 0 0 0 0 0 0 0 0 0 0 0 0
0 0 0 0 0 0 0 0 0 0 0 0 0 0 0 0 0 0 0 0 0 0 0 0 0 0 0 0 0 0 0 0 0 0 0 0 0 0 0 0 0 0 0
0 0 0 0 0 0 0 0 0 0 0 0 0 0 0 0 0 0 0 0 0 0 0 0 0 0 0 0 0 0 0 0 0 0 0 0 0 0 0 0 0 0 0
0 0 0 0 0 0 0 0 0 0 0 0 0 0 0 0 0 0 0 0 0 0 0 0 0 0 0 0 0 0 0 0 0 0 0 0 0 0 0 0 0 0 0
0 0 0 0 0 0 0 0 0 0 0 0 0 0 0 0 0 0 0 0 0 0 0 0 0 0 0 0 0 0 0 0 0 0 0 0 0 0 0 0 0 0 0
0 0 0 0 0 0 0 0 0 0 0 0 0 0 0 0 0 0 0 0 0 0 0 0 0 0 0 0 0 0 0 0 0 0 0 0 0 0 0 0 0 0 0
0 0 0 0 0 0 0 0 0 0 0 0 0 0 0 0 0 0 0 0 0 0 0 0 0 0 0 0 0 0 0 0 0 0 0 0 0 0 0 0 0 0 0
0 0 0 0 0 0 0 0 0 0 0 0 0 0 0 0 0 0 0 0 0 0 0 0 0 0 0 0 0 0 0 0 0 0 0 0 0 0 0 0 0 0 0
0 0 0 0 0 0 0 0 0 0 0 0 0 0 0 0 0 0 0 0 0 0 0 0 0 0 0 0 0 0 0 0 0 0 0 0 0 0 0 0 0 0 0
0 0 0 0 0 0 0 0 0 0 0 0 0 0 0 0 0 0 0 0 0 0 0 0 0 0 0 0 0 0 0 0 0 0 0 0 0 0 0 0 0 0 0
0 0 0 0 0 0 0 0 0 0 0 0 0 0 0 0 0 0 0 0 0 0 0 0 0 0 0 0 0 0 0 0 0 0 0 0 0 0 0 0 0 0 0
0 0 0 0 0 0 0 0 0 0 0 0 0 0 0 0 0 0 0 0 0 0 0 0 0 0 0 0 0 0 0 0 0 0 0 0 0 0 0 0 0 0 0
0 0 0 0 0 0 0 0 0 0 0 0 0 0 0 0 0 0 0 0 0 0 0 0 0 0 0 0 0 0 0 0 0 0 0 0 0 0 0 0 0 0 0
0 0 0 0 0 0 0 0 0 0 0 0 0 0 0 0 0 0 0 0 0 0 0 0 0 0 0 0 0 0 0 0 0 0 0 0 0 0 0 0 0 0 0
Wind_Speed
1 4 7 9 11 12 13 14 15 16 16 17 18 18 19 19 20 20 21 22 22 23 23 23 24 24 24 25 25 25 25 25 25 25 26 25 26 25 24 24 23 14 23
3 3 7 9 10 11 12 13 14 15 16 17 17 18 18 18 19 20 20 21 22 22 23 23 24 24 24 24 25 25 25 25 25 25 25 23 25 25 24 23 23 16 23
5 3 4 8 10 11 12 13 14 15 15 16 17 17 18 18 19 19 20 21 21 22 22 23 23 23 24 24 24 25 25 25 25 25 23 14 16 24 25 23 22 22 23
6 3 2 8 9 10 11 12 13 14 15 15 16 17 18 18 19 19 20 20 21 21 22 22 23 23 23 24 24 24 25 25 25 25 14 14 13 22 25 24 23 22 22
5 2 2 8 9 10 11 12 12 13 14 15 16 17 18 18 19 19 20 20 21 21 22 22 22 23 23 24 24 25 25 25 25 20 14 13 11 22 25 24 23 22 22
5 2 2 8 8 9 10 11 12 13 14 15 16 17 18 18 19 19 20 20 21 21 22 22 23 23 24 24 24 25 25 25 20 14 14 13 13 22 26 25 23 22 22
5 2 2 7 7 8 9 10 11 12 13 15 16 17 18 19 19 19 20 20 21 22 22 23 23 23 24 24 25 25 25 25 17 14 14 13 16 26 26 25 24 23 23
6 4 5 7 8 8 8 9 10 11 13 14 15 17 18 19 19 19 20 21 21 22 22 23 23 23 24 24 25 25 25 23 17 15 13 12 21 27 27 26 25 24 24
7 5 4 5 6 8 8 9 10 11 12 13 15 16 17 18 19 19 21 21 22 22 22 22 23 23 24 24 24 25 24 25 15 11 14 12 23 28 28 27 26 25 25
6 5 4 4 4 4 4 8 9 10 11 12 13 14 16 16 17 18 19 20 21 21 21 21 22 23 23 23 24 24 24 19 10 10 9 13 26 28 28 28 27 26 26
5 4 4 4 3 3 2 6 6 8 9 10 9 12 11 5 6 9 16 19 20 20 20 21 22 22 22 20 23 24 19 8 9 8 8 20 27 28 28 28 28 27 27
6 5 4 4 3 2 2 2 2 2 3 3 3 4 3 4 5 9 15 18 19 18 19 20 21 19 15 7 13 17 7 8 7 8 11 26 27 28 29 29 29 28 28
7 6 5 5 4 2 1 0 1 1 1 2 3 3 3 3 3 4 3 6 8 11 7 10 10 7 7 7 6 7 7 7 6 7 11 26 27 28 29 29 29 29 28
8 7 6 5 4 2 1 0 1 0 1 1 1 2 2 2 2 2 2 3 3 3 4 5 4 6 7 7 7 8 8 7 7 7 10 26 28 28 28 28 29 29 28
9 8 7 6 5 3 1 1 1 0 0 0 0 1 2 1 1 2 2 3 3 3 4 4 5 6 6 6 7 10 10 9 9 9 9 23 27 27 27 28 28 28 28
10 9 7 7 5 4 2 1 1 0 0 0 1 1 2 1 0 1 2 3 3 3 3 4 6 5 5 5 7 9 10 9 8 9 9 14 23 26 26 27 28 28 28
11 10 8 8 6 5 3 2 1 0 0 1 1 1 2 1 1 1 2 3 3 3 4 4 5 4 6 7 8 9 8 8 9 10 11 9 10 19 25 27 28 28 28
11 10 9 8 7 5 4 2 1 1 1 1 1 2 2 1 1 1 2 3 3 3 3 4 3 4 6 6 7 8 7 8 10 11 10 10 9 9 16 25 27 28 29
13 12 10 8 8 6 5 3 1 1 1 1 2 2 2 2 2 2 2 3 3 3 3 5 5 4 6 7 8 7 7 8 10 11 11 11 10 10 9 18 25 27 28
12 12 10 9 8 6 4 2 1 1 1 2 2 2 3 2 3 2 2 3 3 3 3 4 5 5 5 6 10 10 9 10 8 8 10 10 9 12 11 12 12 16 25
12 12 11 10 8 6 3 2 2 2 2 2 2 3 3 3 3 3 3 3 3 3 4 5 4 6 5 5 6 10 9 8 8 7 7 7 10 11 10 12 9 9 11
15 14 12 11 10 8 5 4 3 3 3 3 2 2 3 3 3 3 3 3 3 3 5 5 4 4 5 5 5 9 9 10 7 9 7 9 10 8 10 13 11 12 10
16 16 14 13 11 9 7 4 2 1 1 1 2 2 3 3 3 4 4 4 4 3 4 5 5 5 6 6 3 4 7 10 13 9 8 9 8 8 9 9 12 12 13
18 14 13 13 11 10 9 6 6 5 4 4 3 3 4 4 4 4 4 4 4 4 5 6 5 5 6 8 6 4 6 9 11 12 9 6 8 9 9 11 11 12 13
15 14 12 12 11 10 9 9 7 5 5 3 3 4 4 4 4 5 5 4 5 4 5 6 6 6 5 7 7 7 8 8 8 9 14 12 9 8 8 9 9 10 12
12 12 12 13 12 11 10 9 9 8 7 5 5 4 4 3 4 5 5 5 5 5 6 6 6 7 7 7 7 7 8 8 9 9 11 13 13 11 9 9 9 9 9
Wind_Direction
10 347 31 42 43 43 42 41 39 37 35 33 31 29 28 27 26 24 22 20 18 16 14 13 11 10 9 7 5 3 2 2 2 1 359 356 351 347 347 350 351 349 349
117 28 35 51 48 47 45 42 39 37 35 33 30 28 26 26 24 22 21 19 16 14 13 11 9 8 7 5 3 1 0 0 0 1 0 355 347 343 344 345 347 346 348
97 44 4 55 54 50 46 43 39 37 34 32 29 26 24 24 23 21 20 18 15 13 12 10 8 7 6 3 1 360 359 358 359 1 360 351 342 340 339 341 343 345 346
103 55 8 67 59 53 48 43 39 36 34 31 29 26 24 23 21 20 18 16 13 12 11 9 7 6 5 2 0 359 358 358 359 1 358 348 341 336 337 338 339 341 342
102 57 11 75 64 55 49 44 39 35 33 31 29 25 23 22 20 19 16 14 12 11 10 8 7 6 4 2 1 360 358 357 2 1 353 345 341 333 335 336 336 336 337
115 66 14 79 67 58 50 44 39 35 32 31 28 25 23 21 19 18 15 12 10 10 9 8 7 6 5 4 2 360 358 358 8 358 350 342 339 329 333 333 333 332 332
130 97 20 75 62 55 49 43 38 35 32 30 28 25 23 19 17 16 13 10 9 9 7 6 6 5 4 3 1 359 357 357 7 353 343 338 331 330 331 330 329 329 328
128 96 44 56 53 47 42 41 38 35 32 31 27 25 23 18 15 15 11 8 8 7 5 4 4 4 3 2 359 357 357 360 1 347 337 336 327 330 329 328 327 325 324
122 109 84 59 41 34 30 38 36 34 32 30 26 24 23 18 14 14 9 6 7 5 4 3 2 2 2 360 357 355 356 357 357 341 338 331 326 328 327 325 323 322 320
121 119 109 81 61 36 11 30 34 33 31 30 24 23 25 20 15 14 5 4 5 3 3 0 360 1 1 358 354 353 356 355 340 337 333 323 327 326 324 322 321 318 316
138 136 129 109 78 40 24 40 29 30 30 35 26 26 30 18 6 15 1 4 3 2 1 358 358 360 359 354 351 352 354 342 333 333 327 325 326 324 323 321 318 316 313
168 167 150 135 118 73 42 44 19 32 35 43 46 40 36 26 11 21 6 5 2 1 360 357 357 357 355 344 345 350 342 335 332 330 328 326 325 324 321 319 317 314 311
173 166 159 152 143 129 98 51 38 29 29 29 37 46 45 38 18 13 2 358 352 357 353 351 349 344 339 338 337 335 336 335 327 323 321 324 324 322 319 317 314 311 308
171 170 165 157 152 157 148 31 124 63 27 22 25 54 63 44 15 355 351 339 341 338 336 337 333 332 332 331 330 332 332 327 321 318 315 324 323 321 319 316 313 309 306
174 172 167 161 160 164 155 238 111 92 312 322 72 72 94 82 14 349 336 333 328 327 330 328 328 328 329 328 329 333 324 318 314 315 318 320 322 320 318 315 313 310 306
176 174 169 165 165 160 163 192 206 231 241 176 153 145 132 135 76 339 326 323 321 321 320 321 318 323 318 319 322 321 315 310 311 311 312 315 319 320 319 317 314 311 307
177 172 172 170 164 161 171 197 176 215 209 209 200 186 179 174 183 292 308 312 308 311 318 319 316 322 324 325 319 314 310 309 310 309 309 305 310 316 319 318 316 313 310
173 172 177 170 161 165 170 180 185 196 206 226 220 214 218 221 218 251 291 295 299 311 320 317 325 325 320 316 312 308 307 306 305 303 302 302 302 306 314 314 314 313 311
176 173 174 166 164 168 168 166 176 191 228 242 236 232 237 243 243 246 272 280 297 310 313 323 333 314 312 314 310 305 304 301 296 297 298 297 296 299 301 309 311 311 308
177 174 172 170 168 161 154 149 156 252 262 259 246 239 237 245 256 261 271 281 296 305 307 309 308 308 299 301 310 310 297 291 287 283 288 294 294 297 299 298 300 304 305
178 177 176 173 172 160 155 165 186 229 249 260 248 233 237 250 265 267 283 285 287 290 293 299 303 308 305 303 308 311 300 281 275 282 283 285 290 292 290 293 292 292 296
185 184 181 180 177 174 169 168 177 194 225 233 242 245 249 257 267 279 271 273 278 284 295 299 302 296 301 317 309 316 313 309 298 304 286 284 286 286 290 293 290 289 289
193 189 187 184 179 177 170 155 158 161 271 264 249 248 255 260 264 269 271 268 271 265 278 287 288 284 300 304 272 283 302 305 310 296 291 289 283 284 284 287 287 287 288
198 190 186 181 179 177 170 169 173 190 210 223 223 235 259 260 265 266 266 265 263 262 269 279 296 281 285 300 298 257 260 282 297 305 303 287 283 288 285 289 292 289 286
193 187 184 179 181 179 177 179 181 200 212 223 233 249 257 261 261 263 262 259 259 261 265 271 282 279 273 281 292 294 293 291 282 293 302 305 302 292 284 283 285 283 283
184 183 181 181 186 183 183 183 188 200 210 222 236 245 251 252 258 261 261 253 256 260 263 267 269 273 274 275 280 283 289 295 298 297 296 301 302 301 293 288 284 283 283